TimePST,TemperatureF,Dew PointF,Humidity,Sea Level PressureIn,VisibilityMPH,Wind Direction,Wind SpeedMPH,Gust SpeedMPH,PrecipitationIn,Events,Conditions,WindDirDegrees,DateUTC
12:34 AM,39.0,35.1,86,30.45,10.0,Calm,Calm,-,N/A,,Overcast,0,2013-01-01 08:34:00
12:53 AM,39.0,36.0,89,30.47,10.0,Calm,Calm,-,N/A,,Overcast,0,2013-01-01 08:53:00
1:36 AM,37.9,35.1,89,30.47,10.0,SW,4.6,-,N/A,,Overcast,220,2013-01-01 09:36:00
1:53 AM,37.0,35.1,93,30.48,10.0,SW,5.8,-,N/A,,Overcast,220,2013-01-01 09:53:00
2:53 AM,39.0,35.1,86,30.47,10.0,ESE,4.6,-,N/A,,Overcast,120,2013-01-01 10:53:00
3:53 AM,39.9,35.1,83,30.45,10.0,ESE,6.9,-,N/A,,Overcast,120,2013-01-01 11:53:00
4:53 AM,39.9,34.0,79,30.44,10.0,ESE,6.9,-,N/A,,Overcast,120,2013-01-01 12:53:00
5:53 AM,39.0,34.0,82,30.44,10.0,SSE,6.9,-,N/A,,Overcast,150,2013-01-01 13:53:00
6:53 AM,39.0,33.1,79,30.46,10.0,SSE,4.6,-,N/A,,Overcast,160,2013-01-01 14:53:00
7:53 AM,39.0,33.1,79,30.48,10.0,SSE,6.9,-,N/A,,Overcast,150,2013-01-01 15:53:00
8:53 AM,39.0,33.1,79,30.48,10.0,SSE,4.6,-,N/A,,Overcast,160,2013-01-01 16:53:00
9:53 AM,39.9,34.0,79,30.51,10.0,SE,3.5,-,N/A,,Overcast,140,2013-01-01 17:53:00
10:53 AM,41.0,34.0,76,30.49,10.0,SE,6.9,-,N/A,,Overcast,140,2013-01-01 18:53:00
11:53 AM,41.0,34.0,76,30.48,10.0,ESE,5.8,-,N/A,,Overcast,110,2013-01-01 19:53:00
12:53 PM,41.0,34.0,76,30.46,10.0,East,8.1,-,N/A,,Overcast,80,2013-01-01 20:53:00
1:53 PM,39.9,34.0,79,30.44,10.0,East,5.8,-,N/A,,Overcast,80,2013-01-01 21:53:00
2:08 PM,39.9,34.0,79,30.44,10.0,East,6.9,-,N/A,,Overcast,90,2013-01-01 22:08:00
2:53 PM,39.9,34.0,79,30.45,10.0,ESE,8.1,-,N/A,,Overcast,110,2013-01-01 22:53:00
3:53 PM,39.9,34.0,79,30.44,10.0,East,5.8,-,N/A,,Overcast,90,2013-01-01 23:53:00
4:00 PM,39.9,34.0,79,30.43,10.0,East,5.8,-,N/A,,Overcast,90,2013-01-02 00:00:00
4:53 PM,39.9,33.1,77,30.43,10.0,East,5.8,-,N/A,,Overcast,100,2013-01-02 00:53:00
5:41 PM,37.0,32.0,82,30.40,10.0,East,6.9,-,N/A,,Scattered Clouds,100,2013-01-02 01:41:00
5:53 PM,37.0,33.1,86,30.41,10.0,ESE,6.9,-,N/A,,Mostly Cloudy,120,2013-01-02 01:53:00
6:20 PM,37.0,33.1,86,30.39,10.0,ESE,6.9,-,N/A,,Scattered Clouds,110,2013-01-02 02:20:00
6:53 PM,36.0,32.0,86,30.39,10.0,ESE,8.1,-,N/A,,Partly Cloudy,120,2013-01-02 02:53:00
7:41 PM,36.0,32.0,86,30.38,10.0,SE,5.8,-,N/A,,Mostly Cloudy,140,2013-01-02 03:41:00
7:53 PM,37.0,33.1,86,30.39,10.0,SE,6.9,-,N/A,,Overcast,140,2013-01-02 03:53:00
8:53 PM,37.9,33.1,83,30.38,10.0,SE,8.1,-,N/A,,Overcast,130,2013-01-02 04:53:00
9:53 PM,37.9,33.1,83,30.37,10.0,SE,6.9,-,N/A,,Overcast,130,2013-01-02 05:53:00
10:53 PM,37.9,33.1,83,30.36,10.0,SE,5.8,-,N/A,,Overcast,140,2013-01-02 06:53:00
11:53 PM,36.0,32.0,86,30.36,10.0,SE,4.6,-,N/A,,Overcast,130,2013-01-02 07:53:00